Location: *
(51.8167°N, 12.5000°E)
Time: 00:04:14
(UTC+00:00)

Cosmos 2154 Rocket - Pass Details

Date: 16 September 2019
Orbit: 965 x 997 km, 82.9° (Epoch: 20 October)

Event Time Altitude Azimuth Distance (km) Brightness Sun altitude
Rises 17:47:28 0° 352° (N) 3,673 7.3 -4.5°
Reaches altitude 10° 17:50:07 10° 358° (N) 2,720 6.5 -4.9°
Maximum altitude 17:56:05 47° 72° (ENE) 1,265 4.3 -5.9°
Drops below altitude 10° 18:02:02 10° 145° (SE) 2,703 5.9 -6.7°
Sets 18:04:38 0° 151° (SSE) 3,647 6.6 -7.1°
